[[{"header":{"parameterUnit":"m.s-1","parameterCategory":1,"la1":30.2991,"la2":30.254,"lo1":-89.0895,"lo2":-89.0444,"dx":0.0017,"dy":0.0017,"nx":28,"ny":28,"refTime":"2022-11-26T09:00:00:Z","depth":0,"parameterNumber":2,"parameterNumberName":"U-component_of_WINDS"},"data":[0,0,0,0,0,0,0,0,0,0,0,0,0,0,0,0,0,0,0,0,0,0,0,0,0,0,0,0,0,0,0,0,0,0,0,0,0,0,0,0,0,0,0,0,0,0,0,0,0,0,0,0,0,0,0,0,0,0,3.8826,3.8828,0,3.903,3.9033,3.9035,3.9028,3.9025,3.9023,3.902,3.9236,3.9244,3.9253,0,0,0,0,0,0,0,0,0,0,0,0,0,3.8436,3.8443,3.8826,3.8828,3.8831,3.903,3.9033,3.9035,3.9029,3.9025,3.9022,3.9019,3.9234,3.9243,3.9254,0,0,0,0,0,0,0,0,0,0,0,0,0,3.8619,3.8445,3.8825,3.8851,3.8855,3.9029,3.9033,3.9036,3.9029,3.9025,3.9021,3.9017,3.923,3.9243,3.9255,3.9418,0,0,3.9294,3.9299,0,0,0,0,0,0,0,0,3.8609,3.8634,3.8845,3.885,3.8855,3.8999,3.8975,3.9165,3.9031,3.8964,3.902,3.9015,3.9161,3.9179,3.9227,3.9429,3.9438,3.9295,3.9302,3.9308,3.9311,0,0,0,0,0,0,0,3.8596,3.8625,3.8907,3.8848,3.8854,3.8855,3.8876,3.9011,3.9084,3.8969,3.8969,3.8993,3.9163,3.9215,3.9232,3.9441,3.9294,3.9306,3.9313,3.9318,3.9787,3.9791,0,0,0,0,0,0,3.8577,3.8614,3.89,3.8913,3.8719,3.8865,3.8889,3.8957,3.9083,3.9097,3.8996,3.8992,3.9196,3.9218,3.924,3.9439,3.9308,3.932,3.9327,3.9782,3.9788,3.9793,0,0,0,0,0,0,3.8569,3.8602,3.8892,3.8764,3.88,3.8876,3.8953,3.8964,3.9015,3.9103,3.9117,3.9035,3.9193,3.9222,3.9373,3.9446,3.9325,3.9337,3.9776,3.9784,3.979,3.9837,0,0,0,0,0,0,3.8557,3.8599,3.8661,3.8765,3.8807,3.902,3.8958,3.8971,3.9036,3.9032,3.9143,3.9158,3.9192,3.9355,3.9386,3.9461,3.9347,3.977,3.9779,3.9788,3.983,3.9845,3.9859,0,0,0,0,0,3.8543,3.8668,3.8664,3.8698,3.8885,3.9024,3.9049,3.9084,3.9042,3.9105,3.9162,3.9154,3.9433,3.937,3.9406,3.9486,3.9765,3.9777,3.9787,3.9823,3.9842,3.9859,0,0,0,0,0,0,3.8572,3.8682,3.8679,3.884,3.8922,3.9023,3.9103,3.9103,3.9201,3.9193,3.9235,3.926,3.9411,3.9464,3.9392,3.965,3.9594,3.9613,3.961,3.9629,3.9643,3.9626,3.9357,0,0,0,0,0,3.8597,3.8699,3.879,3.8923,3.8965,3.9027,3.9089,3.9108,3.9197,3.9232,3.93,3.9388,3.9495,3.9565,3.9669,3.9838,3.9862,3.9911,3.9925,3.9937,3.9952,4.0045,4.0067,3.9829,3.9829,3.9828,0,0,3.865,3.8722,3.8784,3.8931,3.8997,3.9103,3.9057,3.9171,3.925,3.9251,3.9396,3.9449,3.9551,3.9711,3.9785,3.9759,4.0023,3.9951,3.9959,3.9968,4.0058,4.0081,4.01,3.9836,3.9835,3.9834,0,0,3.88,3.8865,3.8982,3.9049,3.915,3.919,3.9219,3.9319,3.9353,3.95,3.9502,3.9599,3.9783,3.9854,3.9915,4.0092,4.0089,4.0125,4.0201,4.0291,4.031,4.0326,4.0389,4.041,4.0141,4.0141,4.0141,0,3.8853,3.9011,3.9044,3.9158,3.9223,3.9226,3.9346,3.941,3.954,3.9586,3.9555,3.9785,3.9854,4.0031,4.0073,4.0123,4.0157,4.0112,4.0304,4.0321,4.0337,4.0397,4.042,4.0144,4.0144,4.0144,4.0143,0,3.9071,3.9181,3.9264,3.9386,3.9461,3.9578,3.963,3.9702,3.9716,3.976,3.991,3.9992,4.0112,4.0156,4.0171,4.0335,4.0316,4.0294,4.0239,4.0363,4.042,4.0443,4.0149,4.0148,4.0147,4.0146,0,0,3.9244,3.9382,3.9412,3.9467,3.9578,3.9665,3.9783,3.9897,3.9958,4.0049,4.0148,4.0304,4.0284,4.0353,4.0377,4.0456,4.059,4.0425,4.0428,4.0452,4.0775,4.0789,4.0815,4.0589,4.0594,4.0597,4.0766,0,3.9404,3.9609,3.9643,3.9824,3.9926,3.9931,4.0033,4.0114,4.0159,4.0253,4.0305,4.0413,4.038,4.0421,4.05,4.0557,4.0655,4.0546,4.0683,4.0688,4.0655,4.0845,4.086,4.1015,4.0788,4.0792,4.0795,0,3.9617,3.971,3.9901,3.9997,4.0041,4.0132,4.024,4.033,4.0422,4.045,4.0526,4.054,4.0665,4.0605,4.0777,4.0701,4.076,4.0797,4.0804,4.0817,4.0747,4.0861,4.1065,4.1088,4.0831,4.0828,4.0825,0,3.9722,3.9895,4.0031,4.0079,4.0195,4.0259,4.0311,4.0398,4.0465,4.0561,4.0605,4.0715,4.0774,4.086,4.0904,4.0857,4.1073,4.1017,4.11,4.1099,4.1144,4.114,4.1358,4.1185,4.1184,4.1184,4.1184,0,3.9896,4.0012,4.0079,4.0163,4.0293,4.0332,4.0461,4.0513,4.059,4.0685,4.0698,4.0787,4.0841,4.0939,4.0975,4.1112,4.1139,4.1166,4.1173,4.1163,4.116,4.1201,4.1191,4.119,4.1189,4.1188,4.1187,0,4.0033,4.0083,4.0232,4.0329,4.0357,4.0449,4.0533,4.0616,4.0661,4.0781,4.0811,4.0883,4.0998,4.1051,4.1195,4.122,4.1374,4.1376,4.1342,4.1345,4.1424,4.1415,4.1675,4.1711,4.1515,4.1517,4.1518,0,4.014,4.0229,4.0336,4.0399,4.0452,4.0554,4.0621,4.0664,4.0735,4.0846,4.0915,4.103,4.1125,4.131,4.1376,4.1486,4.1489,4.1573,4.1506,4.1493,4.1489,4.1482,4.1491,4.1584,4.1586,4.1588,4.1589,0,4.0323,4.0343,4.0439,4.0544,4.0623,4.0709,4.0792,4.0844,4.09,4.0979,4.1096,4.1169,4.1315,4.1429,4.1544,4.16,4.1604,4.161,4.1635,4.1624,4.16,4.1612,4.1373,4.1603,4.1602,4.1601,4.16,4.16,4.0448,4.0527,4.0613,4.072,4.0787,4.0865,4.0946,4.1,4.1098,4.1218,4.1238,4.1363,4.1454,4.1607,4.1667,4.1767,4.1747,4.1783,4.1792,4.18,4.1803,4.1586,4.1788,4.1788,4.1788,4.1787,4.1787,0,4.063,4.0686,4.0783,4.0898,4.0983,4.0978,4.107,4.1141,4.125,4.1333,4.1425,4.156,4.1671,4.1746,4.1859,4.1924,4.1929,4.1952,4.1947,4.1959,4.1815,4.1781,4.1946,4.1946,4.1946,4.1946,4.1946,4.1946,4.0735,4.0867,4.0898,4.1064,4.1121,4.124,4.1293,4.1366,4.1432,4.1581,4.1672,4.1719,4.18,4.1919,4.2021,4.2041,4.2081,4.2105,4.2123,4.1987,4.197,4.1954,4.1922,4.2114,4.2114,4.2259,4.226,4.2261]},{"header":{"parameterUnit":"m.s-1","parameterCategory":1,"la1":30.2991,"la2":30.254,"lo1":-89.0895,"lo2":-89.0444,"dx":0.0017,"dy":0.0017,"nx":28,"ny":28,"refTime":"2022-11-26T09:00:00:Z","depth":0,"parameterNumber":3,"parameterNumberName":"V-component_of_WINDS"},"data":[0,0,0,0,0,0,0,0,0,0,0,0,0,0,0,0,0,0,0,0,0,0,0,0,0,0,0,0,0,0,0,0,0,0,0,0,0,0,0,0,0,0,0,0,0,0,0,0,0,0,0,0,0,0,0,0,0,0,1.422,1.422,0,1.4211,1.4211,1.4211,1.4174,1.4173,1.4172,1.4171,1.4163,1.4164,1.4165,0,0,0,0,0,0,0,0,0,0,0,0,0,1.4203,1.4203,1.422,1.422,1.422,1.4211,1.4211,1.4211,1.4174,1.4173,1.4172,1.4171,1.4163,1.4164,1.4165,0,0,0,0,0,0,0,0,0,0,0,0,0,1.4204,1.4204,1.422,1.42,1.4198,1.4212,1.4211,1.4211,1.4174,1.4173,1.4172,1.417,1.4163,1.4164,1.4165,1.4197,0,0,1.4167,1.4168,0,0,0,0,0,0,0,0,1.4204,1.4205,1.4203,1.4201,1.4199,1.4192,1.4202,1.4206,1.4175,1.4183,1.4171,1.417,1.4174,1.4174,1.4175,1.4196,1.4196,1.4168,1.4168,1.4169,1.4169,0,0,0,0,0,0,0,1.4204,1.4205,1.4217,1.4203,1.4201,1.4191,1.419,1.4203,1.4186,1.4182,1.418,1.4179,1.4173,1.4175,1.4175,1.4196,1.4168,1.4168,1.4169,1.4169,1.4241,1.4243,0,0,0,0,0,0,1.4207,1.4205,1.4217,1.4216,1.4198,1.4193,1.4191,1.4196,1.4186,1.4183,1.418,1.4177,1.4174,1.4174,1.4174,1.4211,1.4169,1.4169,1.417,1.424,1.4242,1.4243,0,0,0,0,0,0,1.4207,1.4208,1.4217,1.421,1.421,1.4194,1.42,1.4196,1.4198,1.4184,1.4181,1.4185,1.4173,1.4173,1.4191,1.421,1.417,1.4171,1.4238,1.4241,1.4242,1.4284,0,0,0,0,0,0,1.4206,1.4208,1.4221,1.421,1.4211,1.4234,1.4201,1.4197,1.42,1.4196,1.4188,1.4186,1.4172,1.419,1.4192,1.4211,1.4171,1.4237,1.4239,1.4242,1.4281,1.4288,1.4293,0,0,0,0,0,1.4206,1.4233,1.4221,1.4223,1.4226,1.4236,1.4236,1.4219,1.4201,1.4214,1.4204,1.4186,1.4207,1.4192,1.4194,1.4213,1.4235,1.4239,1.4242,1.4279,1.4286,1.4293,0,0,0,0,0,0,1.4247,1.4232,1.4218,1.4243,1.4241,1.4229,1.4244,1.4228,1.4231,1.4227,1.4206,1.4205,1.4226,1.4221,1.4204,1.4243,1.4218,1.4222,1.4246,1.4253,1.4259,1.426,1.4172,0,0,0,0,0,1.4259,1.4268,1.4254,1.4277,1.4276,1.4261,1.4264,1.4251,1.4248,1.4247,1.4239,1.4237,1.4243,1.4247,1.4252,1.428,1.4277,1.4294,1.43,1.4304,1.4308,1.4322,1.4329,1.4253,1.4253,1.4253,0,0,1.4284,1.4276,1.4283,1.4285,1.4282,1.4291,1.426,1.4272,1.4279,1.4249,1.4265,1.4259,1.4255,1.4278,1.4287,1.4275,1.4328,1.4308,1.4312,1.4313,1.4326,1.4333,1.4339,1.4255,1.4255,1.4255,0,0,1.4334,1.4329,1.4348,1.4345,1.434,1.4328,1.4333,1.4323,1.4318,1.4334,1.4311,1.4319,1.433,1.4327,1.4328,1.4375,1.4358,1.4377,1.4408,1.4422,1.4428,1.4433,1.445,1.4456,1.4381,1.4381,1.4381,0,1.4366,1.4379,1.436,1.4373,1.4374,1.4346,1.4364,1.4362,1.4359,1.4361,1.4346,1.4358,1.4354,1.4375,1.4386,1.4388,1.4392,1.4379,1.4428,1.4433,1.4438,1.4454,1.446,1.4383,1.4383,1.4382,1.4382,0,1.4419,1.4428,1.4444,1.4441,1.4444,1.4459,1.4442,1.4447,1.4433,1.4423,1.4439,1.4432,1.4434,1.4438,1.4425,1.4458,1.445,1.4432,1.4407,1.4448,1.4462,1.4468,1.4386,1.4386,1.4385,1.4384,0,0,1.4497,1.4481,1.4487,1.4485,1.4476,1.4483,1.4497,1.4499,1.4504,1.4502,1.4513,1.4522,1.4505,1.4505,1.4491,1.4503,1.454,1.4484,1.4483,1.4495,1.4575,1.4589,1.4596,1.4528,1.4529,1.453,1.4576,0,1.4545,1.4568,1.455,1.4576,1.4584,1.4557,1.4568,1.4564,1.4555,1.456,1.455,1.4557,1.4534,1.4534,1.4544,1.4534,1.4556,1.453,1.4539,1.4539,1.4542,1.4604,1.4619,1.4662,1.4581,1.4582,1.4583,0,1.4605,1.4605,1.4632,1.462,1.4623,1.4634,1.4634,1.4639,1.4633,1.4626,1.4625,1.4608,1.462,1.4594,1.461,1.4593,1.4595,1.459,1.4591,1.4592,1.4564,1.4607,1.4676,1.4682,1.4591,1.4591,1.459,0,1.4659,1.4666,1.4683,1.4682,1.4668,1.4677,1.4672,1.4664,1.4666,1.4666,1.4666,1.4667,1.4668,1.4669,1.4652,1.4635,1.467,1.4643,1.4664,1.4665,1.4674,1.4674,1.4745,1.4674,1.4674,1.4674,1.4674,0,1.4716,1.4734,1.4707,1.4718,1.4736,1.4714,1.4733,1.4725,1.4718,1.4726,1.4702,1.471,1.4687,1.4692,1.4679,1.4694,1.4694,1.4689,1.4685,1.4691,1.4692,1.4693,1.469,1.4676,1.4675,1.4675,1.4675,0,1.4781,1.4764,1.478,1.4765,1.4762,1.4776,1.4764,1.4772,1.4761,1.4771,1.4772,1.4754,1.4759,1.4741,1.4744,1.4734,1.4757,1.4748,1.4759,1.4757,1.4779,1.4777,1.4853,1.4862,1.4786,1.4787,1.4787,0,1.4818,1.4831,1.4817,1.4821,1.4817,1.4823,1.4824,1.4802,1.4805,1.4798,1.4807,1.481,1.4811,1.482,1.4807,1.4808,1.48,1.4826,1.48,1.4805,1.48,1.48,1.4801,1.4832,1.4833,1.4834,1.4834,0,1.4887,1.4877,1.488,1.488,1.4882,1.4881,1.4878,1.4882,1.4858,1.4862,1.4866,1.4867,1.4869,1.4872,1.487,1.4864,1.4846,1.4842,1.4847,1.4855,1.4861,1.4858,1.4775,1.4841,1.4841,1.484,1.484,1.4839,1.494,1.4949,1.4941,1.4944,1.4939,1.4937,1.4944,1.4933,1.4936,1.4935,1.4922,1.4929,1.4921,1.4916,1.4912,1.4917,1.4905,1.4912,1.4914,1.4916,1.492,1.4859,1.4917,1.4916,1.4916,1.4916,1.4916,0,1.5007,1.5,1.5003,1.4999,1.5002,1.4983,1.4978,1.4982,1.4988,1.4982,1.4983,1.4988,1.499,1.4976,1.4976,1.4983,1.4974,1.4984,1.4984,1.4982,1.4931,1.4927,1.4991,1.4991,1.4991,1.4991,1.4991,1.4991,1.5043,1.5058,1.5047,1.5059,1.5052,1.5058,1.5057,1.5054,1.5049,1.5055,1.5057,1.5047,1.5038,1.5037,1.5038,1.5034,1.5035,1.5048,1.5041,1.4993,1.4986,1.4979,1.4975,1.5048,1.5048,1.5092,1.5092,1.5092]}]]